Weather Roundup
Issued by NWS Corpus Christi, TX

Home | Current Version | Previous Version | Text Only | Print | Product List | Glossary On
Versions: 1 2 3 4 5 6 7 8 9 10 11 12 13 14 15 16 17 18 19 20 21 22 23 24 25 26 27 28 29 30 31 32 33 34 35 36 37 38 39 40 41 42 43 44 45 46 47 48 49 50
000
ASUS44 KCRP 251210
HRRCRP

SOUTH TEXAS REGIONAL WEATHER ROUNDUP
NATIONAL WEATHER SERVICE CORPUS CHRISTI TX
700 AM CDT SAT OCT 25 2014


TXZ229>244-251300-
...CORPUS CHRISTI AREA OBSERVATIONS...

CITY           SKY/WX    TMP DP  RH WIND       PRES   REMARKS
CORPUS CHRISTI CLEAR     62  59  90 NW5       30.13S
NAS CORPUS CHR CLEAR     67  65  93 NW6       30.12S
ROCKPORT       CLEAR     65  63  93 NW5       30.13R
KINGSVILLE NAS CLEAR     59  58  96 NW3       30.13S
ALICE          CLEAR     63  60  90 W3        30.13S
FALFURRIAS     CLEAR     60  58  96 CALM      30.13S
$$

...VICTORIA AREA OBSERVATIONS...

CITY           SKY/WX    TMP DP  RH WIND       PRES   REMARKS
VICTORIA       CLEAR     58  56  93 N3        30.15R FOG
BEEVILLE       FAIR      63  59  87 W6        30.13S
PLEASANTON     CLEAR     57  56  94 CALM      30.16R
SAN ANTONIO    CLEAR     62  57  83 N3        30.16S
$$

...LAREDO AREA OBSERVATIONS...

CITY           SKY/WX    TMP DP  RH WIND       PRES   REMARKS
LAREDO         CLEAR     65  63  93 CALM      30.17R
COTULLA        CLEAR     65  58  78 S3        30.15R
DEL RIO        CLEAR     63  60  90 E6        30.13S
MCALLEN        CLEAR     64  63  96 W3        30.14R FOG
HEBBRONVILLE   CLEAR     61  60  95 SW3       30.15S
$$

...OTHER TEXAS OBSERVATIONS...

CITY           SKY/WX    TMP DP  RH WIND       PRES   REMARKS
BROWNSVILLE    CLEAR     65  63  93 CALM      30.12S
HOUSTON        PTCLDY    57  56  96 CALM      30.15R
COL. STATION   CLEAR     60  56  86 CALM      30.15R
AUSTIN         CLEAR     54  54 100 CALM      30.14S
WACO           CLEAR     60  57  89 SE5       30.13S
FORT WORTH     CLEAR     66  58  75 S9        30.11R
WICHITA FALLS  CLEAR     59  56  89 SE5       30.08R
LUBBOCK        CLEAR     54  49  83 W8        30.17R
EL PASO        CLEAR     58  48  69 CALM      30.20R
$$

...MARINE OBSERVATIONS...

STATION/POSITION TIME  SKY/WX   TEMP    WIND        PRES    VSBY  WAVE   SWELL
                                AIR SEA DIR/SP/G                  HT/PER HT/PER
                 (UTC)          (F)     (DEG/KT/KT) (MB)    (MI)  (FT/S) (FT/S)
PORT ARANSAS     1200            71 78  330/  3/  4 1020.6S
BUOY 90 E PORT A 1200            76 81   50/  6/ 10 1020.4R         2/ 8   2/ 8
BUOY 45 SE BAFFI 1200            77 80   60/  6/  8 1019.3S         3/ 8   3/ 8
BUOY 200 E PT IS 1200            75 81   30/ 10/ 12 1019.1R         3/ 8   3/ 8
BUOY 15 E GALVES 1200            72 77   50/ 10/ 12 1020.0R         1/ 7   2/ 7
$$



USA.gov is the U.S. government's official web portal to all federal, state and local government web resources and services.